Montevideo, MN

2:17 AM CDT on June 21, 2018 (GMT -0500)
Montevideo-Chippewa County

Weather History for KMVE - October, 2017

Change the Weather History Date:

Friday, October 20, 2017

  Actual Average Record
Temperature  
Mean Temperature 66 °F -  
Max Temperature 80 °F 59 °F 85 °F (1978)
Min Temperature 51 °F 35 °F 18 °F (1960)
Growing Degree Days 16 (Base 50)    
Moisture  
Dew Point 51 °F    
Average Humidity 63    
Maximum Humidity 82    
Minimum Humidity 34    
Precipitation  
Precipitation 0.00 in - - ()
Sea Level Pressure  
Sea Level Pressure 29.69 in    
Wind  
Wind Speed 10 mph (SSW)    
Max Wind Speed 24 mph    
Max Gust Speed 33 mph    
Visibility 10 miles    
Events      
Averages and records for this station are not official NWS values.
T = Trace of Precipitation, MM = Missing Value Source: NWS Daily Summary

Daily Weather History Graph

Daily Weather History Graph

Search for Another Location

Airport or City:

Astronomy

Oct. 20, 2017 Rise Set
Actual Time 7:45 AM CDT 6:28 PM CDT
Civil Twilight 7:15 AM CDT 6:58 PM CDT
Nautical Twilight 6:41 AM CDT 7:32 PM CDT
Astronomical Twilight 6:07 AM CDT 8:06 PM CDT
Moon 8:24 AM CDT (10/20) 7:24 PM CDT (10/20)
Length of Visible Light 11h 43m
Length of Day
10h 43m
New Moon, 1% of the Moon is Illuminated
Oct 20
New Moon
Oct 27
First Quarter
Nov 4
Full
Nov 10
Last Quarter
Nov 18
New

Hourly Weather History & Observations

Time (CDT) Temp. Dew Point Humidity Pressure Visibility Wind Dir Wind Speed Gust Speed Precip Events Conditions
12:12 AM 51.8 °F 46.4 °F 82% 29.83 in 10.0 mi South 4.6 mph - N/A   Clear
12:32 AM 51.8 °F 46.4 °F 82% 29.83 in 10.0 mi South 4.6 mph - N/A   Clear
12:52 AM 53.6 °F 48.2 °F 82% 29.83 in 10.0 mi South 5.8 mph - N/A   Clear
1:12 AM 53.6 °F 48.2 °F 82% 29.82 in 10.0 mi South 5.8 mph - N/A   Clear
1:32 AM 53.6 °F 48.2 °F 82% 29.82 in 10.0 mi South 5.8 mph - N/A   Clear
1:52 AM 53.6 °F 48.2 °F 82% 29.82 in 10.0 mi South 5.8 mph - N/A   Clear
2:12 AM 53.6 °F 48.2 °F 82% 29.82 in 10.0 mi South 5.8 mph - N/A   Clear
2:32 AM 53.6 °F 48.2 °F 82% 29.82 in 10.0 mi South 4.6 mph - N/A   Clear
2:52 AM 55.4 °F 50.0 °F 82% 29.81 in 10.0 mi South 6.9 mph - N/A   Clear
3:12 AM 55.4 °F 48.2 °F 77% 29.81 in 10.0 mi SSW 5.8 mph - N/A   Clear
3:32 AM 53.6 °F 48.2 °F 82% 29.80 in 10.0 mi SSW 6.9 mph - N/A   Clear
3:52 AM 55.4 °F 48.2 °F 77% 29.79 in 10.0 mi SSW 8.1 mph - N/A   Clear
4:12 AM 55.4 °F 48.2 °F 77% 29.79 in 10.0 mi SSW 8.1 mph - N/A   Clear
4:32 AM 55.4 °F 48.2 °F 77% 29.79 in 10.0 mi SSW 6.9 mph - N/A   Clear
4:52 AM 55.4 °F 48.2 °F 77% 29.78 in 10.0 mi SSW 8.1 mph - N/A   Clear
5:12 AM 55.4 °F 48.2 °F 77% 29.78 in 10.0 mi SSW 6.9 mph - N/A   Clear
5:32 AM 55.4 °F 48.2 °F 77% 29.78 in 10.0 mi SSW 6.9 mph - N/A   Clear
5:52 AM 55.4 °F 48.2 °F 77% 29.78 in 10.0 mi SSW 8.1 mph - N/A   Clear
6:12 AM 55.4 °F 48.2 °F 77% 29.78 in 10.0 mi SSW 8.1 mph - N/A   Clear
6:32 AM 55.4 °F 48.2 °F 77% 29.78 in 10.0 mi SSW 6.9 mph - N/A   Clear
6:52 AM 55.4 °F 48.2 °F 77% 29.78 in 10.0 mi SSW 8.1 mph - N/A   Clear
7:12 AM 55.4 °F 48.2 °F 77% 29.77 in 10.0 mi SSW 8.1 mph - N/A   Clear
7:32 AM 55.4 °F 48.2 °F 77% 29.77 in 10.0 mi SSW 6.9 mph - N/A   Clear
7:52 AM 55.4 °F 48.2 °F 77% 29.77 in 10.0 mi SSW 6.9 mph - N/A   Clear
8:12 AM 55.4 °F 48.2 °F 77% 29.78 in 10.0 mi SSW 8.1 mph - N/A   Clear
8:31 AM 57.2 °F 48.2 °F 72% 29.77 in 10.0 mi SSW 8.1 mph - N/A   Clear
8:52 AM 57.2 °F 48.2 °F 72% 29.77 in 10.0 mi SSW 9.2 mph - N/A   Clear
9:12 AM 60.8 °F 48.2 °F 63% 29.77 in 10.0 mi SSW 11.5 mph - N/A   Clear
9:31 AM 62.6 °F 50.0 °F 63% 29.77 in 10.0 mi SW 11.5 mph - N/A   Clear
9:52 AM 64.4 °F 50.0 °F 59% 29.76 in 10.0 mi SW 15.0 mph 20.7 mph N/A   Clear
10:12 AM 66.2 °F 51.8 °F 60% 29.75 in 10.0 mi SW 16.1 mph 23.0 mph N/A   Clear
10:32 AM 66.2 °F 51.8 °F 60% 29.75 in 10.0 mi SW 15.0 mph 23.0 mph N/A   Clear
10:52 AM 66.2 °F 51.8 °F 60% 29.74 in 10.0 mi SW 13.8 mph 21.9 mph N/A   Clear
11:12 AM 69.8 °F 51.8 °F 53% 29.73 in 10.0 mi SW 18.4 mph 23.0 mph N/A   Clear
11:32 AM 69.8 °F 51.8 °F 53% 29.73 in 10.0 mi SW 18.4 mph 23.0 mph N/A   Clear
11:52 AM 71.6 °F 51.8 °F 50% 29.72 in 10.0 mi SW 16.1 mph 25.3 mph N/A   Clear
12:11 PM 73.4 °F 51.8 °F 47% 29.71 in 10.0 mi SW 13.8 mph 24.2 mph N/A   Clear
12:32 PM 73.4 °F 51.8 °F 47% 29.69 in 10.0 mi SW 15.0 mph 25.3 mph N/A   Clear
12:52 PM 73.4 °F 51.8 °F 47% 29.68 in 10.0 mi SSW 15.0 mph 26.5 mph N/A   Clear
1:12 PM 75.2 °F 51.8 °F 44% 29.67 in 10.0 mi SSW 17.3 mph 23.0 mph N/A   Clear
1:32 PM 75.2 °F 53.6 °F 47% 29.66 in 10.0 mi SSW 16.1 mph 21.9 mph N/A   Clear
1:52 PM 77.0 °F 53.6 °F 44% 29.65 in 10.0 mi SSW 15.0 mph 25.3 mph N/A   Clear
2:12 PM 77.0 °F 53.6 °F 44% 29.64 in 10.0 mi SSW 15.0 mph 24.2 mph N/A   Clear
2:32 PM 78.8 °F 53.6 °F 42% 29.62 in 10.0 mi SW 18.4 mph 28.8 mph N/A   Clear
2:52 PM 78.8 °F 53.6 °F 42% 29.62 in 10.0 mi SW 21.9 mph 28.8 mph N/A   Clear
3:12 PM 78.8 °F 53.6 °F 42% 29.60 in 10.0 mi SSW 17.3 mph 28.8 mph N/A   Clear
3:31 PM 78.8 °F 53.6 °F 42% 29.60 in 10.0 mi SW 20.7 mph 26.5 mph N/A   Clear
3:52 PM 80.6 °F 51.8 °F 37% 29.59 in 10.0 mi SW 24.2 mph 33.4 mph N/A   Clear
4:12 PM 80.6 °F 50.0 °F 34% 29.59 in 10.0 mi SW 19.6 mph 28.8 mph N/A   Clear
4:31 PM 78.8 °F 51.8 °F 39% 29.59 in 10.0 mi SW 20.7 mph 29.9 mph N/A   Clear
4:52 PM 75.2 °F 51.8 °F 44% 29.59 in 10.0 mi SW 15.0 mph 24.2 mph N/A   Clear
5:12 PM 75.2 °F 51.8 °F 44% 29.59 in 10.0 mi SSW 10.4 mph 18.4 mph N/A   Clear
5:32 PM 75.2 °F 53.6 °F 47% 29.58 in 10.0 mi SSW 12.7 mph 16.1 mph N/A   Clear
5:52 PM 75.2 °F 51.8 °F 44% 29.57 in 10.0 mi SSW 11.5 mph 21.9 mph N/A   Clear
6:12 PM 73.4 °F 51.8 °F 47% 29.57 in 10.0 mi SSW 12.7 mph 21.9 mph N/A   Clear
6:32 PM 73.4 °F 51.8 °F 47% 29.57 in 10.0 mi SSW 11.5 mph 21.9 mph N/A   Clear
6:52 PM 71.6 °F 51.8 °F 50% 29.57 in 10.0 mi South 10.4 mph 19.6 mph N/A   Clear
7:12 PM 69.8 °F 51.8 °F 53% 29.58 in 10.0 mi South 13.8 mph 18.4 mph N/A   Clear
7:32 PM 69.8 °F 53.6 °F 56% 29.59 in 10.0 mi SSW 9.2 mph 21.9 mph N/A   Clear
7:52 PM 69.8 °F 53.6 °F 56% 29.59 in 10.0 mi SSW 12.7 mph 18.4 mph N/A   Clear
8:12 PM 69.8 °F 55.4 °F 60% 29.59 in 10.0 mi SSW 15.0 mph 21.9 mph N/A   Clear
8:32 PM 69.8 °F 55.4 °F 60% 29.58 in 10.0 mi SSW 11.5 mph 19.6 mph N/A   Clear
8:52 PM 68.0 °F 55.4 °F 64% 29.57 in 10.0 mi South 12.7 mph 19.6 mph N/A   Clear
9:12 PM 68.0 °F 55.4 °F 64% 29.57 in 10.0 mi South 15.0 mph 23.0 mph N/A   Clear
9:32 PM 68.0 °F 55.4 °F 64% 29.57 in 10.0 mi South 13.8 mph 19.6 mph N/A   Clear
9:52 PM 68.0 °F 55.4 °F 64% 29.57 in 10.0 mi SSW 15.0 mph 21.9 mph N/A   Scattered Clouds
10:12 PM 68.0 °F 55.4 °F 64% 29.57 in 10.0 mi SSW 15.0 mph 21.9 mph N/A   Overcast
10:32 PM 66.2 °F 55.4 °F 68% 29.58 in 10.0 mi South 13.8 mph 21.9 mph N/A   Overcast
10:52 PM 66.2 °F 55.4 °F 68% 29.58 in 10.0 mi SSW 13.8 mph 20.7 mph N/A   Overcast
11:12 PM 66.2 °F 55.4 °F 68% 29.58 in 10.0 mi SSW 13.8 mph 19.6 mph N/A   Scattered Clouds
11:32 PM 66.2 °F 55.4 °F 68% 29.57 in 10.0 mi SSW 13.8 mph 24.2 mph N/A   Clear
11:52 PM 66.2 °F 55.4 °F 68% 29.56 in 10.0 mi SSW 16.1 mph 21.9 mph N/A   Clear